Location: Newark
(33.6439°N, 114.9881°W)
Time: 09:01:55
(UTC+00:00)

A-11 Canister half - Pass Details

Date: 23 August 2019
Orbit: 1527 x 1682 km, 47.3° (Epoch: 17 September)

Event Time Altitude Azimuth Distance (km) Brightness Sun altitude
Rises 22:17:46 0° 290° (WNW) 4,900 12.1 48.1°
Reaches altitude 10° 22:21:18 10° 299° (WNW) 3,926 11.7 47.5°
Maximum altitude 22:30:30 38° 4° (N) 2,394 10.3 45.7°
Drops below altitude 10° 22:39:43 10° 70° (ENE) 3,935 10.8 43.9°
Sets 22:43:16 0° 78° (ENE) 4,912 11.2 43.2°
